Date String (YYYY-MM-DD hh:mm:ss) UTC,Instrument flags,Ambient pressure (hPa),Sample flow (lpm),Bypass flow (lpm),Sample temperature (°C),Ambient temperature (°C),ASC tube jacket temperature (°C),LED temperature (°C),Box temperature (°C),Sample RH (%),Span deviation,Mass concentration (μg/m³),Mass concentration (μg/m³),Mass concentration (μg/m³)
DateTimeUTC,F1_M11,P_M11,Q1_M11,Q2_M11,T1_M11,T2_M11,T3_M11,T4_M11,T5_M11,U1_M11,ZSPAN_M11,X0_M11,X2_M11,X1_M11
2022-08-12 04:00:00,,0829.5,4.99,0.00,29.3,27.8,00.0,38.1,31.2,26.6,0000.0,0016.65,0007.05,0005.60
2022-08-12 04:01:00,,0829.5,5.00,0.00,29.3,27.9,00.0,38.1,31.3,26.6,0000.0,0016.35,0006.98,0005.56
2022-08-12 04:02:00,,0829.5,5.00,0.00,29.4,28.1,00.0,38.1,31.4,26.2,0000.0,0015.99,0006.93,0005.55
2022-08-12 04:03:00,,0829.5,5.00,0.00,29.4,28.2,00.0,38.1,31.4,25.9,0000.0,0015.35,0006.91,0005.52
2022-08-12 04:04:00,,0829.5,5.01,0.00,29.4,28.4,00.0,38.1,31.4,25.4,0000.0,0015.51,0006.85,0005.47
2022-08-12 04:05:00,,0829.5,4.99,0.00,29.5,28.5,00.0,38.2,31.5,25.1,0000.0,0014.51,0006.75,0005.43
2022-08-12 04:06:00,,0829.6,4.99,0.00,29.5,28.0,00.0,38.1,31.4,25.3,0000.0,0014.41,0006.69,0005.38
2022-08-12 04:07:00,,0829.5,5.01,0.00,29.4,27.3,00.0,38.1,31.2,25.6,0000.0,0014.35,0006.67,0005.35
2022-08-12 04:08:00,,0829.5,4.99,0.00,29.4,27.0,00.0,38.1,31.2,25.8,0000.0,0014.58,0006.62,0005.32
2022-08-12 04:09:00,,0829.6,5.00,0.00,29.3,27.0,00.0,38.1,31.0,26.0,0000.0,0014.71,0006.56,0005.31
2022-08-12 04:10:00,,0829.5,5.01,0.00,29.2,27.1,00.0,38.0,31.0,26.1,0000.0,0014.21,0006.55,0005.29
2022-08-12 04:11:00,,0829.5,4.99,0.00,29.2,27.3,00.0,38.0,31.0,26.3,0000.0,0013.56,0006.54,0005.28
2022-08-12 04:12:00,,0829.5,5.01,0.00,29.2,27.5,00.0,38.0,31.1,26.2,0000.0,0013.82,0006.56,0005.27
2022-08-12 04:13:00,,0829.5,5.01,0.00,29.2,27.7,00.0,38.0,31.2,25.9,0000.0,0013.96,0006.56,0005.26
2022-08-12 04:14:00,,0829.5,4.99,0.00,29.3,27.8,00.0,38.1,31.2,25.8,0000.0,0014.61,0006.48,0005.26
2022-08-12 04:15:00,,0829.5,5.00,0.00,29.3,28.0,00.0,38.1,31.3,25.7,0000.0,0014.37,0006.47,0005.27
2022-08-12 04:16:00,,0829.5,5.00,0.00,29.3,28.1,00.0,38.1,31.3,25.6,0000.0,0014.49,0006.46,0005.29
2022-08-12 04:17:00,,0829.5,5.00,0.00,29.4,28.3,00.0,38.1,31.4,25.5,0000.0,0014.55,0006.44,0005.29
2022-08-12 04:18:00,,0829.5,5.00,0.00,29.4,28.4,00.0,38.1,31.4,25.3,0000.0,0015.00,0006.43,0005.29
2022-08-12 04:19:00,,0829.5,5.00,0.00,29.5,28.5,00.0,38.2,31.5,25.4,0000.0,0014.82,0006.45,0005.29
2022-08-12 04:20:00,,0829.5,5.00,0.00,29.5,28.3,00.0,38.2,31.4,25.2,0000.0,0014.91,0006.45,0005.29
2022-08-12 04:21:00,,0829.6,5.00,0.00,29.4,27.5,00.0,38.1,31.2,25.2,0000.0,0015.55,0006.42,0005.30
2022-08-12 04:22:00,,0829.5,5.00,0.00,29.4,27.0,00.0,38.1,31.1,25.3,0000.0,0015.67,0006.45,0005.32
2022-08-12 04:23:00,,0829.5,5.00,0.00,29.3,26.9,00.0,38.1,31.0,25.4,0000.0,0015.67,0006.50,0005.34
2022-08-12 04:24:00,,0829.6,5.00,0.00,29.2,27.0,00.0,38.0,30.9,25.4,0000.0,0015.47,0006.51,0005.37
2022-08-12 04:25:00,,0829.5,5.02,0.00,29.2,27.2,00.0,38.0,31.0,25.7,0000.0,0015.82,0006.53,0005.39
2022-08-12 04:26:00,,0829.5,5.00,0.00,29.2,27.4,00.0,38.0,31.1,25.6,0000.0,0015.62,0006.54,0005.43
2022-08-12 04:27:00,,0829.6,5.00,0.00,29.2,27.6,00.0,38.0,31.1,25.6,0000.0,0015.57,0006.53,0005.45
2022-08-12 04:28:00,,0829.5,5.01,0.00,29.2,27.7,00.0,38.0,31.2,25.9,0000.0,0015.20,0006.57,0005.49
2022-08-12 04:29:00,,0829.5,4.99,0.00,29.3,27.9,00.0,38.1,31.2,25.3,0000.0,0014.55,0006.61,0005.52
2022-08-12 04:30:00,,0829.6,5.00,0.00,29.3,28.1,00.0,38.1,31.3,25.1,0000.0,0014.59,0006.63,0005.54
2022-08-12 04:31:00,,0829.6,5.00,0.00,29.3,28.2,00.0,38.1,31.3,25.0,0000.0,0015.68,0006.62,0005.56
2022-08-12 04:32:00,,0829.6,5.00,0.00,29.4,28.3,00.0,38.1,31.4,25.1,0000.0,0015.96,0006.61,0005.58
2022-08-12 04:33:00,,0829.6,5.00,0.00,29.4,28.4,00.0,38.1,31.4,24.8,0000.0,0015.85,0006.57,0005.59
2022-08-12 04:34:00,,0829.6,5.01,0.00,29.5,28.5,00.0,38.2,31.5,24.6,0000.0,0015.93,0006.53,0005.58
2022-08-12 04:35:00,,0829.6,5.02,0.00,29.5,28.3,00.0,38.2,31.4,25.1,0000.0,0016.44,0006.54,0005.58
2022-08-12 04:36:00,,0829.5,4.99,0.00,29.5,27.5,00.0,38.1,31.2,25.2,0000.0,0015.47,0006.53,0005.58
2022-08-12 04:37:00,,0829.5,5.00,0.00,29.4,27.0,00.0,38.1,31.1,25.5,0000.0,0015.49,0006.57,0005.59
2022-08-12 04:38:00,,0829.6,5.01,0.00,29.3,27.0,00.0,38.1,31.1,25.1,0000.0,0014.98,0006.63,0005.59
2022-08-12 04:39:00,,0829.5,4.99,0.00,29.2,27.0,00.0,38.1,31.0,25.8,0000.0,0015.73,0006.67,0005.59
2022-08-12 04:40:00,,0829.6,5.01,0.00,29.2,27.2,00.0,38.0,31.0,26.1,0000.0,0015.80,0006.70,0005.59
2022-08-12 04:41:00,,0829.6,5.01,0.00,29.2,27.4,00.0,38.0,31.1,25.9,0000.0,0016.19,0006.73,0005.60
2022-08-12 04:42:00,,0829.7,4.99,0.00,29.2,27.6,00.0,38.0,31.1,26.1,0000.0,0015.67,0006.77,0005.62
2022-08-12 04:43:00,,0829.6,5.00,0.00,29.3,27.7,00.0,38.1,31.2,25.8,0000.0,0015.67,0006.82,0005.63
2022-08-12 04:44:00,,0829.8,5.01,0.00,29.3,27.9,00.0,38.1,31.2,25.7,0000.0,0015.85,0006.88,0005.62
2022-08-12 04:45:00,,0829.8,5.01,0.00,29.3,28.1,00.0,38.1,31.3,25.6,0000.0,0015.58,0006.84,0005.63
2022-08-12 04:46:00,,0829.6,5.00,0.00,29.4,28.2,00.0,38.1,31.3,25.5,0000.0,0014.96,0006.77,0005.61
2022-08-12 04:47:00,,0829.7,5.00,0.00,29.4,28.3,00.0,38.1,31.4,25.5,0000.0,0015.07,0006.77,0005.60
2022-08-12 04:48:00,,0829.6,5.00,0.00,29.4,28.4,00.0,38.1,31.4,25.5,0000.0,0014.81,0006.69,0005.59
2022-08-12 04:49:00,,0829.7,5.01,0.00,29.5,28.5,00.0,38.2,31.5,25.6,0000.0,0015.11,0006.68,0005.58
2022-08-12 04:50:00,,0829.7,5.00,0.00,29.5,28.5,00.0,38.2,31.5,25.5,0000.0,0015.53,0006.63,0005.58
2022-08-12 04:51:00,,0829.7,5.00,0.00,29.5,27.9,00.0,38.2,31.4,25.5,0000.0,0016.16,0006.55,0005.58
2022-08-12 04:52:00,,0829.7,5.00,0.00,29.4,27.3,00.0,38.1,31.2,25.9,0000.0,0016.33,0006.55,0005.59
2022-08-12 04:53:00,,0829.7,5.00,0.00,29.4,27.0,00.0,38.1,31.1,26.1,0000.0,0016.11,0006.55,0005.58
2022-08-12 04:54:00,,0829.7,4.99,0.00,29.3,27.0,00.0,38.1,31.0,26.1,0000.0,0015.26,0006.54,0005.57
2022-08-12 04:55:00,,0829.7,5.00,0.00,29.2,27.1,00.0,38.1,31.0,26.2,0000.0,0016.00,0006.54,0005.57
2022-08-12 04:56:00,,0829.7,5.00,0.00,29.2,27.3,00.0,38.1,31.0,26.2,0000.0,0016.23,0006.61,0005.58
2022-08-12 04:57:00,,0829.7,4.99,0.00,29.2,27.5,00.0,38.1,31.1,26.3,0000.0,0016.86,0006.68,0005.59
2022-08-12 04:58:00,,0829.7,5.01,0.00,29.3,27.7,00.0,38.1,31.2,26.3,0000.0,0017.51,0006.74,0005.61
2022-08-12 04:59:00,,0829.8,4.99,0.00,29.3,27.8,00.0,38.1,31.2,26.4,0000.0,0017.80,0006.77,0005.62
